"startDT [UTC]","vpos","CH4 [ppm]","stdev(CH4) [ppm]","CO2 [ppm]","stdev(CO2) [ppm]","H2O_reported [%]","stdev(H2O_reported)","CavityPressure [torr]","CavityTemp [C]","OutletValve","CH4_dry [ppm]","CO2_dry [ppm]","DasTemp [C]","EtalonTemp [C]","WarmBoxTemp [C]","MPVPosition","T_ECpre [C]","T_EC1 [C]","T_EC2 [C]","p_inlet [hPa]","p_in [hPa]","p_out [hPa]","T_inlet [C]","RH_inlet [%]","dwpt_inlet [C]","T_vent [C]","RH_vent [%]","dwpt_vent [C]","flow_vent [l min-1]","flow_inlet [l min-1]","dwpt_sample [C]","T_room [C]"
2015-09-23 00:00:00,0.0,1.94916,0.00074,392.366,0.065,0.5245,0.0018,140.002,45.000,31601.83000,1.95948,394.886,35.121,45.068,45.000,0.00,0.09,-272.74,-272.80,-7,511,-947,19.3,18.2,-5.5,19.5,18.4,-5.1,5.73,1.86,-3.6,26.1
2015-09-23 00:01:00,0.0,1.94766,0.00088,392.210,0.080,0.5276,0.0017,140.002,45.000,31601.01855,1.95788,394.735,35.102,45.068,45.000,0.00,0.09,-272.75,-272.81,-7,511,-947,19.3,18.3,-5.5,19.5,18.5,-5.1,5.73,1.95,-3.6,26.1
2015-09-23 00:02:00,0.0,1.94686,0.00092,392.187,0.082,0.5287,0.0018,140.003,45.000,31600.48768,1.95717,394.719,35.080,45.068,45.000,0.00,0.09,-272.74,-272.81,-7,511,-947,19.3,18.3,-5.4,19.5,18.5,-5.1,5.73,2.10,-3.6,26.1
2015-09-23 00:03:00,0.0,1.94800,0.00047,392.238,0.037,0.5300,0.0014,140.000,45.000,31600.13827,1.95828,394.779,35.071,45.068,45.000,0.00,0.09,-272.74,-272.80,-6,511,-947,19.3,18.4,-5.4,19.5,18.6,-5.0,5.73,2.11,-3.6,26.1
2015-09-23 00:04:00,0.0,1.94795,0.00047,392.286,0.046,0.5295,0.0019,139.998,45.000,31600.23995,1.95830,394.824,35.076,45.069,45.000,0.00,0.09,-272.74,-272.80,-6,511,-947,19.3,18.4,-5.4,19.5,18.6,-5.0,5.73,2.00,-3.6,26.1
2015-09-23 00:05:00,0.0,1.94750,0.00052,392.236,0.030,0.5308,0.0017,139.998,45.000,31601.53238,1.95782,394.781,35.103,45.068,45.000,0.00,0.09,-272.75,-272.81,-7,511,-947,19.3,18.4,-5.4,19.5,18.6,-5.0,5.73,1.88,-3.6,26.1
2015-09-23 00:06:00,0.0,1.94790,0.00039,392.253,0.024,0.5329,0.0017,140.001,45.000,31600.66195,1.95831,394.806,35.112,45.068,45.000,0.00,0.09,-272.75,-272.80,-7,511,-947,19.3,18.4,-5.3,19.5,18.7,-4.9,5.73,1.88,-3.6,26.1
2015-09-23 00:07:00,0.0,1.94695,0.00076,392.157,0.044,0.5316,0.0026,139.998,45.000,31600.50261,1.95730,394.707,35.120,45.068,45.000,0.00,0.09,-272.75,-272.79,-7,511,-947,19.3,18.4,-5.3,19.5,18.7,-4.9,5.73,2.02,-3.6,26.1
2015-09-23 00:08:00,0.0,1.94688,0.00054,392.150,0.045,0.5336,0.0018,140.002,45.000,31600.34248,1.95731,394.708,35.125,45.068,45.000,0.00,0.09,-272.75,-272.81,-7,511,-947,19.3,18.5,-5.3,19.5,18.7,-4.9,5.73,2.13,-3.6,26.1
2015-09-23 00:09:00,0.0,1.94661,0.00066,392.148,0.040,0.5333,0.0018,140.000,45.000,31600.32039,1.95691,394.702,35.123,45.068,45.000,0.00,0.09,-272.75,-272.81,-7,511,-947,19.3,18.5,-5.3,19.5,18.8,-4.9,5.73,2.07,-3.6,26.1
2015-09-23 00:10:00,0.0,1.94692,0.00100,392.123,0.114,0.5349,0.0022,140.000,45.000,31599.75138,1.95740,394.690,35.125,45.068,45.000,0.00,0.09,-272.74,-272.80,-7,511,-947,19.3,18.5,-5.3,19.5,18.8,-4.9,5.73,1.93,-3.6,26.1
2015-09-23 00:11:00,0.0,1.94632,0.00055,392.063,0.040,0.5349,0.0026,140.000,45.000,31599.91028,1.95673,394.625,35.128,45.068,45.000,0.00,0.09,-272.74,-272.80,-6,511,-947,19.3,18.6,-5.2,19.5,18.8,-4.9,5.73,1.86,-3.6,26.1
2015-09-23 00:12:00,0.0,1.94743,0.00088,392.200,0.085,0.5356,0.0020,140.000,45.000,31599.01534,1.95784,394.767,35.137,45.068,45.000,0.00,0.09,-272.75,-272.81,-6,511,-947,19.3,18.6,-5.2,19.5,18.8,-4.8,5.73,1.94,-3.6,26.1
2015-09-23 00:13:00,0.0,1.94692,0.00047,392.161,0.052,0.5362,0.0014,139.999,45.000,31599.86666,1.95736,394.731,35.126,45.068,45.000,0.00,0.09,-272.74,-272.80,-6,511,-947,19.3,18.6,-5.2,19.5,18.8,-4.9,5.73,2.08,-3.6,26.1
2015-09-23 00:14:00,0.0,1.94729,0.00060,392.217,0.076,0.5372,0.0025,140.000,45.000,31600.03789,1.95774,394.792,35.122,45.068,45.000,0.00,0.09,-272.74,-272.80,-7,511,-947,19.3,18.6,-5.2,19.5,18.8,-4.9,5.73,2.12,-3.6,26.1
2015-09-23 00:15:00,0.0,1.94606,0.00074,392.131,0.095,0.5376,0.0019,140.001,45.000,31598.73903,1.95660,394.711,35.109,45.068,45.000,0.00,0.09,-272.75,-272.81,-7,511,-947,19.3,18.6,-5.2,19.5,18.9,-4.8,5.73,2.01,-3.6,26.1
2015-09-23 00:16:00,0.0,1.94206,0.00165,391.671,0.216,0.5403,0.0016,139.998,45.000,31600.50716,1.95266,394.263,35.107,45.068,45.000,0.00,0.09,-272.74,-272.81,-7,511,-947,19.3,18.7,-5.1,19.5,18.9,-4.8,5.73,1.88,-3.6,26.1
2015-09-23 00:17:00,0.0,1.94290,0.00141,391.762,0.204,0.5427,0.0017,140.001,45.000,31600.43711,1.95347,394.363,35.093,45.068,45.000,0.00,0.09,-272.74,-272.80,-7,511,-947,19.3,18.8,-5.1,19.5,19.0,-4.7,5.73,1.88,-3.6,26.1
2015-09-23 00:18:00,0.0,1.94184,0.00059,391.592,0.074,0.5439,0.0021,140.001,45.000,31600.52727,1.95235,394.194,35.077,45.068,45.000,0.00,0.09,-272.75,-272.81,-7,511,-947,19.3,18.8,-5.0,19.5,19.1,-4.7,5.73,2.01,-3.6,26.1
2015-09-23 00:19:00,0.0,1.94242,0.00060,391.686,0.072,0.5433,0.0015,140.000,45.000,31600.81556,1.95296,394.284,35.074,45.068,45.000,0.00,0.09,-272.75,-272.80,-6,511,-947,19.3,18.9,-5.0,19.5,19.1,-4.7,5.73,2.12,-3.6,26.1
2015-09-23 00:20:00,0.0,1.94326,0.00039,391.802,0.044,0.5446,0.0017,140.001,45.000,31601.26937,1.95380,394.409,35.097,45.068,45.001,0.00,0.09,-272.75,-272.80,-6,511,-947,19.3,18.9,-5.0,19.5,19.1,-4.7,5.73,2.08,-3.6,26.1
2015-09-23 00:21:00,0.0,1.94291,0.00074,391.741,0.112,0.5459,0.0016,139.998,45.000,31599.11476,1.95356,394.360,35.099,45.068,45.000,0.00,0.09,-272.74,-272.80,-6,511,-947,19.3,18.9,-5.0,19.5,19.2,-4.6,5.73,1.94,-3.6,26.1
2015-09-23 00:22:00,0.0,1.94284,0.00043,391.723,0.070,0.5464,0.0023,139.999,45.000,31599.22115,1.95351,394.342,35.089,45.068,45.000,0.00,0.09,-272.75,-272.81,-7,511,-947,19.3,18.9,-5.0,19.5,19.2,-4.6,5.73,1.85,-3.6,26.1
2015-09-23 00:23:00,0.0,1.94252,0.00098,391.703,0.155,0.5463,0.0017,140.001,45.000,31599.84717,1.95309,394.314,35.070,45.068,45.000,0.00,0.09,-272.74,-272.80,-7,511,-947,19.3,19.0,-5.0,19.5,19.2,-4.6,5.73,1.94,-3.6,26.1
2015-09-23 00:24:00,0.0,1.94383,0.00088,391.877,0.108,0.5474,0.0016,140.000,45.000,31598.59551,1.95449,394.501,35.064,45.068,45.000,0.00,0.09,-272.75,-272.80,-7,511,-947,19.3,19.0,-4.9,19.5,19.3,-4.6,5.73,2.08,-3.6,26.1
2015-09-23 00:25:00,0.0,1.94450,0.00070,391.837,0.037,0.5504,0.0026,140.001,45.000,31599.89883,1.95511,394.474,35.067,45.068,45.000,0.00,0.09,-272.75,-272.81,-7,511,-947,19.3,19.1,-4.9,19.5,19.3,-4.5,5.73,2.12,-3.6,26.1
2015-09-23 00:26:00,0.0,1.94375,0.00150,391.774,0.091,0.5514,0.0016,139.998,45.000,31599.88135,1.95456,394.417,35.092,45.068,45.000,0.00,0.09,-272.75,-272.80,-7,511,-947,19.3,19.1,-4.9,19.5,19.4,-4.5,5.73,2.01,-3.6,26.2
2015-09-23 00:27:00,0.0,1.94288,0.00051,391.759,0.038,0.5551,0.0026,140.001,45.000,31601.19266,1.95367,394.418,35.113,45.068,45.000,0.00,0.09,-272.74,-272.80,-6,511,-947,19.3,19.2,-4.8,19.5,19.5,-4.4,5.73,1.87,-3.6,26.1
2015-09-23 00:28:00,0.0,1.94355,0.00089,391.636,0.090,0.5611,0.0020,139.999,45.000,31601.83128,1.95443,394.326,35.116,45.068,45.000,0.00,0.09,-272.74,-272.81,-6,511,-947,19.3,19.4,-4.6,19.5,19.6,-4.3,5.73,1.88,-3.6,26.1
2015-09-23 00:29:00,0.0,1.94097,0.00177,391.292,0.153,0.5605,0.0049,140.000,45.000,31601.81392,1.95206,393.983,35.124,45.068,45.000,0.00,0.09,-272.75,-272.81,-6,511,-947,19.3,19.4,-4.6,19.5,19.7,-4.2,5.73,2.01,-3.6,26.1
2015-09-23 00:30:00,0.0,1.93970,0.00087,391.168,0.063,0.5553,0.0020,140.001,45.000,31601.77735,1.95042,393.823,35.122,45.068,45.000,0.00,0.09,-272.75,-272.80,-7,511,-947,19.3,19.3,-4.8,19.5,19.5,-4.3,5.73,2.13,-3.6,26.1
2015-09-23 00:31:00,0.0,1.94034,0.00082,391.226,0.073,0.5599,0.0020,140.001,45.000,31601.64080,1.95120,393.905,35.116,45.068,45.000,0.00,0.09,-272.75,-272.81,-7,511,-947,19.3,19.4,-4.7,19.5,19.6,-4.3,5.73,2.07,-3.6,26.1
2015-09-23 00:32:00,0.0,1.94210,0.00046,391.310,0.044,0.5663,0.0026,139.999,45.000,31600.45464,1.95306,394.020,35.123,45.068,45.000,0.00,0.09,-272.75,-272.81,-7,511,-947,19.3,19.7,-4.5,19.5,19.8,-4.2,5.73,1.93,-3.6,26.1
2015-09-23 00:33:00,0.0,1.94019,0.00179,391.188,0.152,0.5651,0.0070,139.999,45.000,31600.10342,1.95125,393.895,35.116,45.068,45.000,0.00,0.09,-272.75,-272.81,-7,511,-947,19.3,19.6,-4.5,19.5,19.9,-4.1,5.73,1.86,-3.6,26.1
2015-09-23 00:34:00,0.0,1.94086,0.00060,391.212,0.042,0.5663,0.0025,139.997,45.000,31599.71197,1.95185,393.922,35.121,45.068,45.000,0.00,0.09,-272.74,-272.80,-7,511,-947,19.3,19.6,-4.5,19.5,19.9,-4.1,5.73,1.94,-3.6,26.1
2015-09-23 00:35:00,0.0,1.94182,0.00111,391.253,0.052,0.5680,0.0023,140.001,45.000,31600.44142,1.95276,393.969,35.123,45.068,45.000,0.00,0.09,-272.75,-272.80,-6,511,-947,19.3,19.7,-4.4,19.5,19.9,-4.1,5.73,2.09,-3.6,26.1
2015-09-23 00:36:00,0.0,1.94274,0.00066,391.233,0.051,0.5702,0.0023,139.999,45.000,31600.00770,1.95379,393.965,35.120,45.068,45.000,0.00,0.09,-272.75,-272.80,-6,511,-947,19.3,19.8,-4.4,19.5,20.0,-4.0,5.73,2.12,-3.6,26.1
2015-09-23 00:37:00,0.0,1.94161,0.00094,391.158,0.048,0.5675,0.0021,140.002,45.000,31601.14298,1.95274,393.877,35.124,45.068,45.000,0.00,0.09,-272.75,-272.80,-6,511,-947,19.3,19.7,-4.5,19.5,20.0,-4.1,5.73,2.00,-3.6,26.1
2015-09-23 00:38:00,0.0,1.94177,0.00100,391.179,0.048,0.5651,0.0026,140.003,45.000,31600.25258,1.95274,393.883,35.125,45.068,45.000,0.00,0.09,-272.74,-272.81,-7,511,-947,19.3,19.6,-4.5,19.5,19.9,-4.1,5.73,1.86,-3.6,26.1
2015-09-23 00:39:00,0.0,1.94219,0.00083,391.195,0.030,0.5670,0.0029,140.003,45.000,31602.02757,1.95317,393.906,35.125,45.068,45.000,0.00,0.09,-272.75,-272.81,-7,511,-947,19.3,19.7,-4.5,19.5,19.9,-4.1,5.73,1.90,-3.6,26.1
2015-09-23 00:40:00,0.0,1.94163,0.00128,391.111,0.058,0.5651,0.0033,140.001,45.000,31602.45978,1.95270,393.820,35.128,45.068,45.000,0.00,0.09,-272.74,-272.81,-7,511,-947,19.3,19.6,-4.5,19.5,19.9,-4.1,5.73,2.04,-3.6,26.1
2015-09-23 00:41:00,0.0,1.94082,0.00108,391.061,0.058,0.5584,0.0025,140.001,45.000,31601.94471,1.95161,393.732,35.125,45.068,45.000,0.00,0.09,-272.74,-272.81,-7,511,-947,19.3,19.4,-4.7,19.5,19.7,-4.2,5.73,2.13,-3.6,26.1
2015-09-23 00:42:00,0.0,1.94122,0.00129,391.054,0.039,0.5584,0.0025,140.004,45.000,31604.70464,1.95210,393.725,35.126,45.068,45.000,0.00,0.09,-272.74,-272.81,-7,512,-947,19.3,19.4,-4.7,19.5,19.6,-4.3,5.73,2.05,-3.6,26.1
2015-09-23 00:43:00,0.0,1.94110,0.00149,391.040,0.042,0.5581,0.0026,140.002,45.000,31602.72109,1.95200,393.711,35.119,45.068,45.000,0.00,0.09,-272.74,-272.81,-6,511,-947,19.3,19.3,-4.7,19.5,19.6,-4.3,5.73,1.90,-3.6,26.1
2015-09-23 00:44:00,0.0,1.94201,0.00136,391.061,0.026,0.5588,0.0033,139.998,45.000,31602.07552,1.95277,393.732,35.108,45.068,45.000,0.00,0.09,-272.74,-272.80,-6,511,-947,19.3,19.4,-4.7,19.5,19.6,-4.3,5.73,1.86,-3.6,26.1
2015-09-23 00:45:00,0.0,1.94156,0.00085,391.075,0.043,0.5602,0.0018,140.003,45.000,31603.18113,1.95252,393.757,35.104,45.068,45.000,0.00,0.09,-272.75,-272.80,-6,511,-947,19.3,19.4,-4.6,19.5,19.7,-4.3,5.73,1.99,-3.6,26.1
2015-09-23 00:46:00,0.0,1.94067,0.00119,391.023,0.043,0.5582,0.0021,140.000,45.000,31602.06219,1.95145,393.693,35.117,45.068,45.000,0.00,0.09,-272.75,-272.81,-7,511,-947,19.3,19.4,-4.7,19.5,19.6,-4.3,5.73,2.11,-3.6,26.1
2015-09-23 00:47:00,0.0,1.94016,0.00145,391.009,0.056,0.5554,0.0030,139.997,45.000,31600.98971,1.95092,393.664,35.116,45.068,45.000,0.00,0.09,-272.74,-272.80,-7,511,-947,19.3,19.3,-4.8,19.5,19.6,-4.4,5.73,2.09,-3.6,26.1
2015-09-23 00:48:00,0.0,1.94241,0.00039,391.000,0.037,0.5624,0.0019,140.002,45.000,31603.79939,1.95339,393.690,35.121,45.068,45.000,0.00,0.09,-272.74,-272.80,-7,511,-947,19.3,19.5,-4.6,19.5,19.7,-4.3,5.73,1.95,-3.6,26.2
2015-09-23 00:49:00,0.0,1.94180,0.00176,390.990,0.051,0.5579,0.0031,140.000,45.000,31602.71567,1.95262,393.658,35.111,45.068,45.000,0.00,0.09,-272.75,-272.81,-7,511,-947,19.3,19.4,-4.7,19.5,19.7,-4.3,5.73,1.85,-3.6,26.1
2015-09-23 00:50:00,0.0,1.94229,0.00106,391.035,0.047,0.5636,0.0033,140.000,45.000,31599.70964,1.95328,393.730,35.118,45.068,45.000,0.00,0.09,-272.75,-272.80,-7,512,-947,19.3,19.6,-4.6,19.5,19.8,-4.2,5.73,1.93,-3.6,26.1
2015-09-23 00:51:00,0.0,1.94336,0.00112,391.053,0.035,0.5689,0.0032,140.001,45.000,31599.60437,1.95430,393.774,35.111,45.068,45.000,0.00,0.09,-272.74,-272.80,-6,512,-947,19.3,19.7,-4.5,19.5,19.9,-4.1,5.73,2.09,-3.6,26.2
2015-09-23 00:52:00,0.0,1.94380,0.00089,391.016,0.043,0.5717,0.0024,140.002,45.000,31600.41442,1.95501,393.754,35.117,45.068,45.000,0.00,0.09,-272.75,-272.81,-6,511,-947,19.3,19.8,-4.4,19.5,20.1,-4.0,5.73,2.12,-3.6,26.2
2015-09-23 00:53:00,0.0,1.94428,0.00141,391.036,0.039,0.5698,0.0028,139.998,45.000,31599.84679,1.95530,393.760,35.125,45.068,45.000,0.00,0.09,-272.74,-272.81,-7,511,-947,19.3,19.8,-4.4,19.5,20.0,-4.1,5.73,1.99,-3.6,26.2
2015-09-23 00:54:00,0.0,1.94156,0.00172,390.931,0.042,0.5647,0.0050,140.001,45.000,31601.85500,1.95263,393.634,35.125,45.068,45.000,0.00,0.09,-272.74,-272.81,-7,511,-947,19.3,19.6,-4.5,19.5,20.0,-4.1,5.73,1.86,-3.6,26.2
2015-09-23 00:55:00,0.0,1.94192,0.00099,390.956,0.045,0.5664,0.0019,140.001,45.000,31602.10726,1.95287,393.663,35.139,45.068,45.000,0.00,0.09,-272.74,-272.80,-7,511,-947,19.3,19.6,-4.5,19.5,19.9,-4.1,5.73,1.90,-3.6,26.2
2015-09-23 00:56:00,0.0,1.94223,0.00187,390.943,0.058,0.5690,0.0044,140.000,45.000,31599.68133,1.95342,393.669,35.175,45.068,45.000,0.00,0.09,-272.75,-272.81,-7,512,-947,19.3,19.7,-4.4,19.5,20.0,-4.0,5.73,2.06,-3.6,26.1
2015-09-23 00:57:00,0.0,1.94031,0.00079,390.891,0.035,0.5642,0.0020,140.000,45.000,31601.39701,1.95123,393.588,35.146,45.068,45.000,0.00,0.09,-272.74,-272.80,-7,511,-947,19.3,19.6,-4.5,19.5,19.9,-4.2,5.73,2.14,-3.6,26.2
2015-09-23 00:58:00,0.0,1.94077,0.00126,390.902,0.047,0.5692,0.0020,140.000,45.000,31601.01254,1.95190,393.626,35.132,45.068,45.000,0.00,0.09,-272.74,-272.81,-6,512,-947,19.3,19.7,-4.4,19.5,20.0,-4.1,5.73,2.02,-3.6,26.1
2015-09-23 00:59:00,0.0,1.94238,0.00127,390.943,0.046,0.5762,0.0058,140.000,45.000,31602.09333,1.95351,393.697,35.125,45.068,45.000,0.00,0.09,-272.75,-272.81,-6,511,-947,19.3,20.0,-4.3,19.5,20.1,-4.0,5.73,1.88,-3.6,26.1
2015-09-23 01:00:00,0.0,1.94025,0.00118,390.897,0.041,0.5747,0.0042,139.999,45.000,31601.17113,1.95152,393.648,35.125,45.068,45.000,0.00,0.09,-272.74,-272.80,-6,511,-947,19.3,20.0,-4.3,19.5,20.3,-3.9,5.73,1.88,-3.6,26.1
2015-09-23 01:01:00,0.0,1.93852,0.00093,390.888,0.045,0.5669,0.0036,140.000,45.000,31602.98036,1.94955,393.600,35.123,45.068,45.000,0.00,0.09,-272.75,-272.80,-7,511,-947,19.3,19.7,-4.5,19.5,20.0,-4.0,5.73,2.03,-3.6,26.1
2015-09-23 01:02:00,0.0,1.93954,0.00123,390.902,0.057,0.5661,0.0037,140.001,45.000,31601.55487,1.95050,393.608,35.094,45.068,45.000,0.00,0.09,-272.75,-272.81,-7,511,-947,19.3,19.6,-4.5,19.5,19.9,-4.1,5.73,2.13,-3.6,26.1
2015-09-23 01:03:00,0.0,1.94016,0.00062,390.963,0.036,0.5748,0.0040,140.001,45.000,31603.09644,1.95128,393.712,35.090,45.068,45.000,0.00,0.09,-272.74,-272.81,-7,511,-947,19.3,19.9,-4.3,19.5,20.1,-4.0,5.73,2.05,-3.6,26.1
2015-09-23 01:04:00,0.0,1.94006,0.00110,390.920,0.047,0.5744,0.0048,139.999,45.000,31603.98513,1.95119,393.668,35.114,45.068,45.000,0.00,0.09,-272.74,-272.80,-7,512,-947,19.3,19.9,-4.3,19.5,20.2,-3.9,5.73,1.90,-3.6,26.2
2015-09-23 01:05:00,0.0,1.94006,0.00107,390.908,0.039,0.5739,0.0059,139.999,45.000,31602.36220,1.95130,393.657,35.122,45.068,45.000,0.00,0.09,-272.74,-272.80,-6,511,-947,19.3,19.9,-4.3,19.5,20.2,-3.9,5.73,1.86,-3.6,26.2
2015-09-23 01:06:00,0.0,1.94068,0.00069,390.937,0.039,0.5685,0.0030,139.999,45.000,31602.13916,1.95165,393.653,35.125,45.068,45.000,0.00,0.09,-272.75,-272.81,-6,512,-947,19.3,19.7,-4.4,19.5,20.0,-4.0,5.73,1.99,-3.6,26.2
2015-09-23 01:07:00,0.0,1.93936,0.00137,390.881,0.064,0.5630,0.0071,139.999,45.000,31602.25531,1.95037,393.577,35.124,45.068,45.000,0.00,0.09,-272.74,-272.80,-6,512,-947,19.3,19.5,-4.6,19.5,19.9,-4.1,5.73,2.12,-3.6,26.2
2015-09-23 01:08:00,0.0,1.93884,0.00041,390.894,0.030,0.5596,0.0032,140.001,45.000,31603.24832,1.94972,393.570,35.120,45.068,45.000,0.00,0.09,-272.74,-272.81,-7,511,-947,19.3,19.4,-4.7,19.5,19.7,-4.3,5.73,2.08,-3.6,26.1
2015-09-23 01:09:00,0.0,1.93930,0.00070,390.923,0.039,0.5643,0.0032,140.001,45.000,31603.16636,1.95020,393.619,35.108,45.068,45.000,0.00,0.09,-272.74,-272.81,-7,511,-947,19.3,19.6,-4.5,19.5,19.8,-4.2,5.73,1.92,-3.6,26.1
2015-09-23 01:10:00,0.0,1.94156,0.00109,390.924,0.043,0.5739,0.0022,140.002,45.000,31604.33744,1.95263,393.670,35.116,45.068,45.000,0.00,0.09,-272.74,-272.80,-7,512,-947,19.3,19.9,-4.3,19.5,20.1,-4.0,5.73,1.85,-3.6,26.1
2015-09-23 01:11:00,0.0,1.94046,0.00138,390.889,0.053,0.5705,0.0069,140.002,45.000,31603.39135,1.95164,393.620,35.116,45.068,45.000,0.00,0.09,-272.75,-272.80,-7,512,-947,19.3,19.8,-4.4,19.5,20.1,-4.0,5.73,1.97,-3.6,26.2
2015-09-23 01:12:00,0.0,1.93834,0.00056,390.892,0.032,0.5595,0.0054,140.002,45.000,31602.24325,1.94928,393.570,35.111,45.068,45.000,0.00,0.09,-272.75,-272.81,-7,512,-947,19.3,19.3,-4.7,19.5,19.8,-4.2,5.73,2.11,-3.6,26.2
2015-09-23 01:13:00,0.0,1.93784,0.00043,390.893,0.027,0.5552,0.0034,140.003,45.000,31603.94776,1.94858,393.546,35.084,45.068,45.000,0.00,0.09,-272.75,-272.81,-6,512,-947,19.3,19.2,-4.8,19.5,19.5,-4.4,5.73,2.10,-3.6,26.2
2015-09-23 01:14:00,0.0,1.93858,0.00049,390.906,0.037,0.5641,0.0023,139.999,45.000,31602.60940,1.94953,393.604,35.069,45.068,45.000,0.00,0.09,-272.74,-272.80,-6,512,-947,19.3,19.5,-4.6,19.5,19.8,-4.2,5.73,1.95,-3.6,26.2
2015-09-23 01:15:00,0.0,1.93847,0.00056,390.883,0.041,0.5615,0.0029,140.002,45.000,31603.73167,1.94935,393.567,35.087,45.068,45.000,0.00,0.09,-272.74,-272.81,-6,512,-947,19.3,19.4,-4.6,19.5,19.7,-4.2,5.73,1.85,-3.6,26.2
2015-09-23 01:16:00,0.0,1.93883,0.00057,390.906,0.037,0.5653,0.0032,139.999,45.000,31602.03799,1.94978,393.608,35.089,45.068,45.000,0.00,0.09,-272.75,-272.81,-7,511,-947,19.3,19.6,-4.5,19.5,19.8,-4.2,5.73,1.94,-3.6,26.2
2015-09-23 01:17:00,0.0,1.93954,0.00069,390.927,0.031,0.5723,0.0030,140.001,45.000,31600.91611,1.95063,393.665,35.111,45.068,45.000,0.00,0.09,-272.75,-272.80,-7,512,-947,19.3,19.8,-4.3,19.5,20.0,-4.0,5.73,2.10,-3.6,26.2
2015-09-23 01:18:00,0.0,1.93920,0.00069,390.925,0.056,0.5798,0.0017,140.001,45.000,31603.21707,1.95049,393.698,35.124,45.068,45.000,0.00,0.09,-272.74,-272.80,-7,512,-947,19.3,20.1,-4.2,19.5,20.3,-3.8,5.73,2.12,-3.6,26.2
2015-09-23 01:19:00,0.0,1.93946,0.00044,390.975,0.036,0.5860,0.0030,140.000,45.000,31602.50563,1.95085,393.778,35.125,45.068,45.000,0.00,0.09,-272.75,-272.81,-7,512,-947,19.3,20.3,-4.0,19.5,20.5,-3.7,5.73,1.97,-3.6,26.2
2015-09-23 01:20:00,0.0,1.94050,0.00091,391.070,0.080,0.5869,0.0028,140.000,45.000,31603.21176,1.95184,393.878,35.124,45.068,45.000,0.00,0.09,-272.75,-272.81,-6,512,-947,19.3,20.4,-4.0,19.5,20.6,-3.6,5.73,1.86,-3.6,26.2
2015-09-23 01:21:00,0.0,1.94390,0.00260,391.154,0.133,0.5775,0.0107,139.999,45.000,31602.96382,1.95499,393.920,35.125,45.068,45.000,0.00,0.09,-272.74,-272.80,-6,511,-947,19.3,20.0,-4.3,19.5,20.5,-3.7,5.73,1.91,-3.6,26.2
2015-09-23 01:22:00,0.0,1.94610,0.00062,391.305,0.039,0.5712,0.0053,140.001,45.000,31603.25628,1.95720,394.038,35.125,45.068,45.000,0.00,0.09,-272.75,-272.81,-6,512,-947,19.3,19.8,-4.4,19.5,20.0,-4.0,5.73,2.08,-3.6,26.2
2015-09-23 01:23:00,0.0,1.94845,0.00090,391.390,0.054,0.5733,0.0048,140.000,45.000,31600.59131,1.95954,394.132,35.123,45.068,45.000,0.00,0.09,-272.75,-272.81,-7,511,-947,19.3,19.9,-4.3,19.5,20.2,-3.9,5.73,2.13,-3.6,26.1
2015-09-23 01:24:00,0.0,1.94906,0.00067,391.444,0.073,0.5757,0.0028,140.000,45.000,31602.06858,1.96034,394.206,35.125,45.068,45.000,0.00,0.09,-272.74,-272.80,-7,511,-947,19.3,19.9,-4.3,19.5,20.2,-3.9,5.73,1.99,-3.6,26.1
2015-09-23 01:25:00,0.0,1.94872,0.00053,391.430,0.063,0.5694,0.0030,140.002,45.000,31601.74966,1.95983,394.154,35.142,45.068,45.000,0.00,0.09,-272.74,-272.80,-7,512,-947,19.3,19.7,-4.4,19.5,20.0,-4.0,5.73,1.86,-3.6,26.1
2015-09-23 01:26:00,0.0,1.95076,0.00120,391.623,0.089,0.5773,0.0044,139.999,45.000,31600.04665,1.96192,394.385,35.145,45.068,45.000,0.00,0.09,-272.75,-272.81,-7,512,-947,19.3,20.0,-4.2,19.5,20.2,-3.9,5.73,1.90,-3.6,26.1
2015-09-23 01:27:00,0.0,1.95296,0.00155,391.779,0.061,0.5880,0.0037,140.000,45.000,31599.94900,1.96438,394.598,35.146,45.068,45.000,0.00,0.09,-272.75,-272.80,-6,512,-947,19.3,20.4,-4.0,19.5,20.6,-3.7,5.73,2.06,-3.6,26.2
2015-09-23 01:28:00,0.0,1.95642,0.00053,391.863,0.043,0.5750,0.0052,140.002,45.000,31599.90661,1.96764,394.624,35.158,45.068,45.000,0.00,0.09,-272.74,-272.80,-6,512,-947,19.3,19.9,-4.3,19.5,20.3,-3.8,5.73,2.13,-3.6,26.1
2015-09-23 01:29:00,0.0,1.95610,0.00051,391.849,0.048,0.5692,0.0020,140.002,45.000,31600.23284,1.96728,394.578,35.152,45.068,45.000,0.00,0.09,-272.75,-272.81,-6,511,-947,19.3,19.7,-4.4,19.5,20.0,-4.0,5.73,2.02,-3.6,26.2
2015-09-23 01:30:00,0.0,1.95478,0.00106,391.817,0.059,0.5693,0.0015,139.996,45.000,31597.28014,1.96599,394.548,35.127,45.068,45.000,0.00,0.09,-272.74,-272.81,-7,512,-947,19.3,19.7,-4.4,19.5,20.0,-4.0,5.73,1.87,-3.6,26.2
2015-09-23 01:31:00,0.0,1.95361,0.00061,391.810,0.038,0.5735,0.0031,140.000,45.000,31598.13991,1.96482,394.557,35.125,45.068,45.000,0.00,0.09,-272.74,-272.80,-7,512,-947,19.3,19.9,-4.3,19.5,20.1,-4.0,5.73,1.88,-3.6,26.2
2015-09-23 01:32:00,0.0,1.95381,0.00028,391.774,0.044,0.5802,0.0020,139.998,45.000,31598.87124,1.96513,394.558,35.123,45.068,45.000,0.00,0.09,-272.75,-272.80,-7,512,-947,19.3,20.1,-4.2,19.5,20.3,-3.8,5.73,2.03,-3.6,26.2
2015-09-23 01:33:00,0.0,1.95417,0.00047,391.740,0.031,0.5690,0.0047,139.996,45.000,31598.51910,1.96528,394.469,35.123,45.068,45.000,0.00,0.09,-272.75,-272.81,-7,512,-947,19.3,19.7,-4.4,19.5,20.1,-4.0,5.73,2.13,-3.6,26.2
2015-09-23 01:34:00,0.0,1.95563,0.00058,391.846,0.047,0.5687,0.0018,140.001,45.000,31600.87248,1.96670,394.569,35.122,45.068,45.000,0.00,0.09,-272.74,-272.81,-7,512,-947,19.3,19.7,-4.4,19.5,20.0,-4.1,5.73,2.04,-3.6,26.2
2015-09-23 01:35:00,0.0,1.95630,0.00083,391.883,0.057,0.5737,0.0013,140.001,45.000,31599.67867,1.96760,394.637,35.124,45.068,45.000,0.00,0.09,-272.74,-272.81,-6,512,-947,19.3,19.9,-4.3,19.5,20.1,-4.0,5.73,1.89,-3.5,26.1
2015-09-23 01:36:00,0.0,1.95601,0.00065,391.912,0.068,0.5751,0.0034,140.003,45.000,31599.46552,1.96721,394.668,35.123,45.068,45.000,0.00,0.09,-272.75,-272.81,-6,512,-947,19.3,19.9,-4.3,19.5,20.2,-3.9,5.73,1.86,-3.6,26.1
2015-09-23 01:37:00,0.0,1.95168,0.00239,391.638,0.148,0.5778,0.0049,139.999,45.000,31599.78253,1.96320,394.416,35.117,45.068,45.000,0.00,0.09,-272.75,-272.80,-6,511,-947,19.3,20.0,-4.2,19.5,20.3,-3.8,5.73,2.00,-3.6,26.2
2015-09-23 01:38:00,0.0,1.94998,0.00053,391.556,0.053,0.5740,0.0036,139.999,45.000,31598.77168,1.96123,394.308,35.113,45.068,45.000,0.00,0.09,-272.74,-272.80,-7,512,-947,19.3,19.9,-4.3,19.5,20.2,-3.9,5.73,2.13,-3.6,26.2
2015-09-23 01:39:00,0.0,1.94787,0.00133,391.364,0.091,0.5650,0.0040,140.003,45.000,31601.13972,1.95899,394.074,35.118,45.068,45.000,0.00,0.09,-272.75,-272.81,-7,512,-947,19.3,19.5,-4.5,19.5,19.9,-4.1,5.73,2.07,-3.6,26.2
2015-09-23 01:40:00,0.0,1.94754,0.00087,391.371,0.059,0.5617,0.0030,140.001,45.000,31601.54142,1.95851,394.062,35.124,45.068,45.000,0.00,0.09,-272.75,-272.81,-7,512,-947,19.3,19.4,-4.6,19.5,19.7,-4.2,5.73,1.91,-3.6,26.2
2015-09-23 01:41:00,0.0,1.94668,0.00094,391.329,0.098,0.5635,0.0049,140.000,45.000,31600.52505,1.95761,394.024,35.126,45.068,45.000,0.00,0.09,-272.74,-272.81,-7,512,-947,19.3,19.5,-4.6,19.5,19.7,-4.2,5.73,1.86,-3.6,26.2
2015-09-23 01:42:00,0.0,1.94418,0.00162,391.117,0.148,0.5616,0.0084,140.001,45.000,31599.26982,1.95525,393.812,35.148,45.068,45.000,0.00,0.09,-272.74,-272.80,-6,512,-947,19.3,19.4,-4.6,19.5,19.8,-4.2,5.73,1.98,-3.6,26.2
2015-09-23 01:43:00,0.0,1.94257,0.00058,391.056,0.043,0.5546,0.0043,140.001,45.000,31601.24592,1.95337,393.708,35.136,45.068,45.000,0.00,0.09,-272.75,-272.80,-6,512,-947,19.3,19.2,-4.8,19.5,19.5,-4.4,5.73,2.13,-3.6,26.2
2015-09-23 01:44:00,0.0,1.94282,0.00039,391.043,0.043,0.5548,0.0026,139.999,45.000,31599.97580,1.95358,393.696,35.127,45.068,45.000,0.00,0.09,-272.74,-272.80,-6,512,-947,19.3,19.2,-4.8,19.5,19.5,-4.4,5.73,2.08,-3.6,26.2
2015-09-23 01:45:00,0.0,1.94267,0.00085,390.907,0.086,0.5484,0.0036,140.001,45.000,31598.35875,1.95335,393.534,35.130,45.068,45.000,0.00,0.09,-272.74,-272.80,-7,512,-947,19.3,18.9,-4.9,19.5,19.3,-4.5,5.73,1.91,-3.6,26.2